WZZ411 ENAL-EPGD

Flight info

Callsign WZZ411
Flight time 1h 44m
Altitude 35000
Route GIGIR DCT VATEX DCT PENOR N133 DOMAG T240 OGDAV
Aircraft A321/M-SDE1E2E3FGIJ1J4RWXY/LB1

Departure

Time 2026-04-22 10:20
Airport Ålesund Airport (ENAL)

Arrival

Time 2026-04-22 12:05
Airport Gdańsk Lech Wałęsa Airport (EPGD)
Time Latitude Longitude Altitude Speed Heading
2026-04-22 09:26 62.55929 6.11545 69 ft 0 kts 154°
2026-04-22 09:37 62.55929 6.11544 69 ft 0 kts 154°
2026-04-22 09:38 62.55930 6.11544 69 ft 0 kts 154°
2026-04-22 09:59 62.55930 6.11543 69 ft 0 kts 154°
2026-04-22 10:00 62.55931 6.11543 69 ft 0 kts 154°
2026-04-22 10:13 62.55929 6.11548 59 ft 1 kts 137°
2026-04-22 10:13 62.55930 6.11557 59 ft 1 kts 97°
2026-04-22 10:13 62.55934 6.11564 59 ft 1 kts 56°
2026-04-22 10:13 62.55969 6.11598 68 ft 10 kts 10°
2026-04-22 10:14 62.56060 6.11662 63 ft 15 kts 50°
2026-04-22 10:14 62.56109 6.11849 62 ft 13 kts 64°
2026-04-22 10:14 62.56145 6.12009 61 ft 11 kts 60°
2026-04-22 10:14 62.56199 6.12097 63 ft 9 kts 23°
2026-04-22 10:15 62.56258 6.12133 71 ft 8 kts 12°
2026-04-22 10:15 62.56309 6.12238 70 ft 14 kts 62°
2026-04-22 10:15 62.56356 6.12448 68 ft 16 kts 65°
2026-04-22 10:15 62.56408 6.12685 61 ft 18 kts 65°
2026-04-22 10:16 62.56441 6.12913 71 ft 13 kts 92°
2026-04-22 10:16 62.56461 6.12998 69 ft 6 kts 342°
2026-04-22 10:16 62.56460 6.12926 63 ft 6 kts 248°
2026-04-22 10:16 62.56453 6.12893 60 ft 0 kts 245°
2026-04-22 10:17 62.56453 6.12894 60 ft 0 kts 245°
2026-04-22 10:18 62.56454 6.12894 60 ft 0 kts 245°
2026-04-22 10:19 62.56453 6.12891 60 ft 1 kts 245°
2026-04-22 10:20 62.56442 6.12840 68 ft 15 kts 245°
2026-04-22 10:20 62.56275 6.12080 69 ft 92 kts 245°
2026-04-22 10:20 62.55902 6.10386 87 ft 151 kts 244°
2026-04-22 10:20 62.55464 6.08270 764 ft 152 kts 245°
2026-04-22 10:21 62.55019 6.06211 1513 ft 156 kts 245°
2026-04-22 10:21 62.54516 6.03943 1991 ft 178 kts 245°
2026-04-22 10:21 62.53947 6.01386 2361 ft 199 kts 245°
2026-04-22 10:21 62.53311 5.98520 2576 ft 223 kts 245°
2026-04-22 10:22 62.52602 5.95310 2938 ft 245 kts 245°
2026-04-22 10:22 62.51858 5.91947 3711 ft 250 kts 245°
2026-04-22 10:22 62.51097 5.88513 4491 ft 255 kts 244°
2026-04-22 10:22 62.49936 5.85553 5187 ft 268 kts 214°
2026-04-22 10:23 62.48145 5.84440 5873 ft 279 kts 179°
2026-04-22 10:23 62.46235 5.85385 6601 ft 285 kts 158°
2026-04-22 10:23 62.44448 5.87357 7324 ft 290 kts 144°
2026-04-22 10:23 62.43132 5.90618 7990 ft 291 kts 114°
2026-04-22 10:24 62.42501 5.94705 8688 ft 291 kts 96°
2026-04-22 10:24 62.42495 5.99051 9426 ft 290 kts 75°
2026-04-22 10:24 62.43152 6.03162 10156 ft 290 kts 63°
2026-04-22 10:24 62.43959 6.07192 10759 ft 298 kts 63°
2026-04-22 10:25 62.44824 6.11396 10930 ft 321 kts 63°
2026-04-22 10:25 62.45772 6.15956 11128 ft 340 kts 63°
2026-04-22 10:25 62.46751 6.20680 11648 ft 347 kts 63°
2026-04-22 10:25 62.47739 6.25478 12278 ft 351 kts 63°
2026-04-22 10:26 62.48611 6.30453 12908 ft 358 kts 73°
2026-04-22 10:26 62.48936 6.35834 13537 ft 365 kts 88°
2026-04-22 10:26 62.48646 6.41329 14171 ft 371 kts 102°
2026-04-22 10:26 62.47738 6.46579 14758 ft 376 kts 117°
2026-04-22 10:27 62.46395 6.51353 15398 ft 378 kts 121°
2026-04-22 10:27 62.44994 6.56187 16053 ft 379 kts 121°
2026-04-22 10:27 62.43594 6.61027 16708 ft 380 kts 120°
2026-04-22 10:27 62.42193 6.65880 17367 ft 381 kts 120°
2026-04-22 10:28 62.40786 6.70754 18009 ft 383 kts 120°
2026-04-22 10:28 62.39374 6.75637 18657 ft 384 kts 120°
2026-04-22 10:28 62.37955 6.80525 19219 ft 386 kts 120°
2026-04-22 10:28 62.36527 6.85435 19739 ft 388 kts 120°
2026-04-22 10:29 62.35085 6.90375 20266 ft 390 kts 120°
2026-04-22 10:29 62.33657 6.95257 20831 ft 391 kts 120°
2026-04-22 10:29 62.32200 7.00220 21358 ft 393 kts 120°
2026-04-22 10:29 62.30732 7.05213 21881 ft 395 kts 120°
2026-04-22 10:30 62.29255 7.10228 22381 ft 398 kts 120°
2026-04-22 10:30 62.27768 7.15271 22871 ft 401 kts 120°
2026-04-22 10:30 62.26269 7.20342 23352 ft 403 kts 120°
2026-04-22 10:30 62.24757 7.25444 23829 ft 406 kts 120°
2026-04-22 10:31 62.23256 7.30497 24174 ft 409 kts 120°
2026-04-22 10:31 62.21662 7.35574 24542 ft 413 kts 125°
2026-04-22 10:31 62.19705 7.40131 24944 ft 418 kts 135°
2026-04-22 10:31 62.17446 7.44111 25366 ft 420 kts 138°
2026-04-22 10:32 62.15161 7.48032 25765 ft 422 kts 138°
2026-04-22 10:32 62.12865 7.51968 26181 ft 423 kts 138°
2026-04-22 10:32 62.10566 7.55906 26562 ft 424 kts 137°
2026-04-22 10:32 62.08248 7.59872 26847 ft 429 kts 137°
2026-04-22 10:33 62.05894 7.63889 26967 ft 436 kts 137°
2026-04-22 10:33 62.03532 7.67915 27100 ft 443 kts 138°
2026-04-22 10:33 62.01099 7.72050 27229 ft 450 kts 138°
2026-04-22 10:33 61.98628 7.76234 27375 ft 457 kts 138°
2026-04-22 10:34 61.96117 7.80471 27485 ft 463 kts 138°
2026-04-22 10:34 61.93577 7.84751 27631 ft 467 kts 138°
2026-04-22 10:34 61.91023 7.89046 27880 ft 468 kts 138°
2026-04-22 10:34 61.88504 7.93277 28166 ft 468 kts 137°
2026-04-22 10:35 61.85942 7.97572 28474 ft 468 kts 137°
2026-04-22 10:35 61.83380 8.01855 28799 ft 467 kts 137°
2026-04-22 10:35 61.80834 8.06102 29149 ft 465 kts 137°
2026-04-22 10:35 61.78289 8.10332 29520 ft 463 kts 137°
2026-04-22 10:36 61.75790 8.14475 29889 ft 462 kts 137°
2026-04-22 10:36 61.73266 8.18656 30278 ft 460 kts 137°
2026-04-22 10:36 61.70753 8.22815 30631 ft 458 kts 137°
2026-04-22 10:36 61.68242 8.26966 30901 ft 456 kts 137°
2026-04-22 10:37 61.65737 8.31098 31249 ft 454 kts 137°
2026-04-22 10:37 61.60798 8.39203 31939 ft 449 kts 137°
2026-04-22 10:37 61.58335 8.43234 32247 ft 447 kts 137°
2026-04-22 10:38 61.55882 8.47246 32532 ft 446 kts 137°
2026-04-22 10:38 61.53435 8.51244 32801 ft 446 kts 136°
2026-04-22 10:38 61.51020 8.55183 33036 ft 445 kts 136°
2026-04-22 10:38 61.48574 8.59165 33293 ft 445 kts 136°
2026-04-22 10:39 61.46126 8.63136 33570 ft 444 kts 136°
2026-04-22 10:39 61.43682 8.67085 33837 ft 443 kts 136°
2026-04-22 10:39 61.41242 8.71013 34112 ft 441 kts 136°
2026-04-22 10:39 61.38834 8.74874 34351 ft 440 kts 136°
2026-04-22 10:40 61.36406 8.78768 34592 ft 439 kts 136°
2026-04-22 10:40 61.33983 8.82655 34804 ft 439 kts 136°
2026-04-22 10:40 61.31561 8.86538 35000 ft 439 kts 136°
2026-04-22 10:40 61.29130 8.90425 35206 ft 439 kts 137°
2026-04-22 10:41 61.26706 8.94294 35302 ft 440 kts 137°
2026-04-22 10:41 61.21878 9.01975 35308 ft 440 kts 137°
2026-04-22 10:42 61.17007 9.09688 35307 ft 441 kts 136°
2026-04-22 10:42 61.12114 9.17399 35313 ft 442 kts 137°
2026-04-22 10:43 61.07231 9.25054 35307 ft 442 kts 137°
2026-04-22 10:43 61.02319 9.32743 35313 ft 443 kts 137°
2026-04-22 10:44 60.97402 9.40431 35320 ft 443 kts 137°
2026-04-22 10:44 60.92503 9.48042 35321 ft 443 kts 137°
2026-04-22 10:45 60.87562 9.55672 35315 ft 443 kts 137°
2026-04-22 10:45 60.82627 9.63268 35326 ft 443 kts 137°
2026-04-22 10:46 60.77722 9.70796 35313 ft 444 kts 137°
2026-04-22 10:46 60.72754 9.78379 35300 ft 445 kts 137°
2026-04-22 10:47 60.67788 9.85931 35305 ft 445 kts 137°
2026-04-22 10:47 60.62846 9.93421 35304 ft 444 kts 137°
2026-04-22 10:48 60.57881 10.00920 35301 ft 443 kts 137°
2026-04-22 10:48 60.52952 10.08328 35301 ft 443 kts 137°
2026-04-22 10:49 60.47991 10.15751 35296 ft 442 kts 137°
2026-04-22 10:49 60.43034 10.23165 35300 ft 443 kts 137°
2026-04-22 10:50 60.38059 10.30580 35295 ft 444 kts 137°
2026-04-22 10:50 60.33101 10.37912 35314 ft 444 kts 137°
2026-04-22 10:51 60.28099 10.45278 35309 ft 443 kts 137°
2026-04-22 10:51 60.23139 10.52572 35303 ft 443 kts 137°
2026-04-22 10:52 60.18146 10.59895 35300 ft 443 kts 137°
2026-04-22 10:52 60.13179 10.67133 35298 ft 443 kts 137°
2026-04-22 10:53 60.08164 10.74405 35311 ft 444 kts 137°
2026-04-22 10:53 60.03178 10.81628 35303 ft 444 kts 137°
2026-04-22 10:54 59.98160 10.88867 35312 ft 444 kts 137°
2026-04-22 10:54 59.93130 10.96083 35305 ft 444 kts 137°
2026-04-22 10:55 59.88146 11.03213 35302 ft 443 kts 137°
2026-04-22 10:55 59.83143 11.10346 35300 ft 443 kts 137°
2026-04-22 10:56 59.78126 11.17481 35298 ft 443 kts 137°
2026-04-22 10:56 59.73105 11.24592 35307 ft 443 kts 137°
2026-04-22 10:57 59.68088 11.31654 35316 ft 444 kts 137°
2026-04-22 10:57 59.63888 11.37546 35306 ft 444 kts 137°
2026-04-22 10:58 59.58834 11.44619 35306 ft 443 kts 137°
2026-04-22 10:58 59.53824 11.51602 35301 ft 443 kts 137°
2026-04-22 10:59 59.48779 11.58612 35294 ft 443 kts 137°
2026-04-22 10:59 59.43735 11.65595 35293 ft 443 kts 137°
2026-04-22 11:00 59.38682 11.72557 35299 ft 443 kts 137°
2026-04-22 11:00 59.33653 11.79456 35310 ft 444 kts 137°
2026-04-22 11:01 59.28838 11.86869 35296 ft 438 kts 132°
2026-04-22 11:01 59.24207 11.94539 35290 ft 437 kts 132°
2026-04-22 11:02 59.19545 12.02220 35284 ft 438 kts 132°
2026-04-22 11:02 59.14871 12.09874 35287 ft 438 kts 132°
2026-04-22 11:03 59.10226 12.17460 35282 ft 438 kts 132°
2026-04-22 11:03 59.05577 12.25042 35271 ft 438 kts 132°
2026-04-22 11:04 59.00901 12.32637 35311 ft 438 kts 132°
2026-04-22 11:04 58.96223 12.40209 35289 ft 437 kts 132°
2026-04-22 11:05 58.91577 12.47686 35284 ft 436 kts 132°
2026-04-22 11:05 58.86899 12.55175 35286 ft 436 kts 132°
2026-04-22 11:06 58.82214 12.62658 35283 ft 436 kts 132°
2026-04-22 11:06 58.77568 12.70073 35302 ft 436 kts 132°
2026-04-22 11:07 58.72873 12.77530 35250 ft 438 kts 133°
2026-04-22 11:07 58.68165 12.84949 35255 ft 440 kts 133°
2026-04-22 11:08 58.63418 12.92410 35288 ft 440 kts 133°
2026-04-22 11:08 58.58679 12.99859 35294 ft 440 kts 133°
2026-04-22 11:09 58.53934 13.07280 35293 ft 439 kts 133°
2026-04-22 11:09 58.49219 13.14624 35291 ft 439 kts 133°
2026-04-22 11:10 58.44462 13.22007 35303 ft 440 kts 133°
2026-04-22 11:10 58.39701 13.29382 35290 ft 441 kts 133°
2026-04-22 11:11 58.34952 13.36724 35285 ft 441 kts 133°
2026-04-22 11:11 58.30167 13.44084 35308 ft 441 kts 133°
2026-04-22 11:12 58.25399 13.51393 35289 ft 440 kts 133°
2026-04-22 11:12 58.20651 13.58631 35287 ft 439 kts 133°
2026-04-22 11:13 58.15873 13.65879 35286 ft 439 kts 133°
2026-04-22 11:13 58.11115 13.73079 35284 ft 439 kts 133°
2026-04-22 11:14 58.06355 13.80268 35279 ft 440 kts 133°
2026-04-22 11:14 58.01554 13.87486 35268 ft 440 kts 133°
2026-04-22 11:15 57.96754 13.94681 35265 ft 441 kts 133°
2026-04-22 11:15 57.91956 14.01859 35266 ft 441 kts 133°
2026-04-22 11:16 57.87146 14.09029 35247 ft 441 kts 133°
2026-04-22 11:16 57.82324 14.16185 35261 ft 442 kts 133°
2026-04-22 11:17 57.77515 14.23275 35249 ft 442 kts 133°
2026-04-22 11:17 57.72662 14.30406 35248 ft 443 kts 133°
2026-04-22 11:18 57.67831 14.37497 35249 ft 443 kts 133°
2026-04-22 11:18 57.62965 14.44602 35268 ft 443 kts 133°
2026-04-22 11:19 57.58108 14.51680 35261 ft 442 kts 133°
2026-04-22 11:19 57.53282 14.58689 35260 ft 441 kts 133°
2026-04-22 11:20 57.48441 14.65698 35232 ft 440 kts 133°
2026-04-22 11:20 57.43616 14.72666 35237 ft 441 kts 133°
2026-04-22 11:21 57.38759 14.79656 35234 ft 441 kts 133°
2026-04-22 11:21 57.33921 14.86587 35235 ft 442 kts 133°
2026-04-22 11:22 57.29044 14.93541 35243 ft 441 kts 134°
2026-04-22 11:22 57.24206 15.00416 35240 ft 440 kts 134°
2026-04-22 11:23 57.19350 15.07305 35245 ft 440 kts 133°
2026-04-22 11:23 57.14505 15.14156 35233 ft 441 kts 133°
2026-04-22 11:24 57.09619 15.21029 35223 ft 441 kts 134°
2026-04-22 11:24 57.04745 15.27881 35214 ft 441 kts 133°
2026-04-22 11:25 56.99895 15.34678 35215 ft 441 kts 134°
2026-04-22 11:25 56.95205 15.41205 35208 ft 438 kts 134°
2026-04-22 11:26 56.90343 15.47943 35207 ft 437 kts 133°
2026-04-22 11:26 56.85513 15.54637 35203 ft 438 kts 134°
2026-04-22 11:27 56.80637 15.61370 35202 ft 439 kts 134°
2026-04-22 11:27 56.75764 15.68077 35202 ft 439 kts 134°
2026-04-22 11:28 56.70867 15.74787 35204 ft 440 kts 134°
2026-04-22 11:28 56.66008 15.81431 35200 ft 440 kts 134°
2026-04-22 11:29 56.61101 15.88108 35212 ft 438 kts 134°
2026-04-22 11:29 56.56238 15.94697 35199 ft 438 kts 134°
2026-04-22 11:30 56.51344 16.01329 35194 ft 438 kts 134°
2026-04-22 11:30 56.46447 16.07944 35194 ft 439 kts 134°
2026-04-22 11:31 56.41541 16.14538 35199 ft 439 kts 134°
2026-04-22 11:31 56.36652 16.21072 35201 ft 439 kts 134°
2026-04-22 11:32 56.31726 16.27645 35227 ft 440 kts 134°
2026-04-22 11:32 56.26835 16.34156 35203 ft 439 kts 134°
2026-04-22 11:33 56.21914 16.40696 35199 ft 439 kts 134°
2026-04-22 11:33 56.16980 16.47226 35204 ft 440 kts 134°
2026-04-22 11:34 56.12072 16.53697 35208 ft 440 kts 135°
2026-04-22 11:34 56.07114 16.60197 35210 ft 441 kts 135°
2026-04-22 11:35 56.02161 16.66686 35214 ft 441 kts 135°
2026-04-22 11:35 55.97230 16.73131 35217 ft 441 kts 135°
2026-04-22 11:36 55.92266 16.79584 35230 ft 441 kts 135°
2026-04-22 11:36 55.87316 16.86001 35225 ft 441 kts 135°
2026-04-22 11:37 55.82338 16.92429 35219 ft 441 kts 135°
2026-04-22 11:37 55.77362 16.98830 35218 ft 441 kts 135°
2026-04-22 11:38 55.72414 17.05185 35230 ft 441 kts 135°
2026-04-22 11:38 55.64920 17.14758 35221 ft 444 kts 137°
2026-04-22 11:39 55.62200 17.17513 35244 ft 455 kts 147°
2026-04-22 11:39 55.59326 17.19844 35220 ft 453 kts 147°
2026-04-22 11:39 55.56516 17.22092 35015 ft 443 kts 147°
2026-04-22 11:39 55.53722 17.24315 34764 ft 436 kts 147°
2026-04-22 11:40 55.50973 17.26512 34545 ft 431 kts 146°
2026-04-22 11:40 55.48245 17.28703 34302 ft 427 kts 146°
2026-04-22 11:40 55.45542 17.30883 34031 ft 424 kts 146°
2026-04-22 11:40 55.42901 17.33017 33762 ft 422 kts 146°
2026-04-22 11:41 55.40232 17.35169 33481 ft 421 kts 146°
2026-04-22 11:41 55.37568 17.37309 33210 ft 419 kts 146°
2026-04-22 11:41 55.34923 17.39423 32822 ft 414 kts 147°
2026-04-22 11:41 55.32304 17.41512 32373 ft 411 kts 148°
2026-04-22 11:42 55.29735 17.43561 31892 ft 408 kts 149°
2026-04-22 11:42 55.27124 17.45641 31430 ft 405 kts 149°
2026-04-22 11:42 55.24590 17.47657 30970 ft 403 kts 149°
2026-04-22 11:42 55.22035 17.49684 30519 ft 400 kts 150°
2026-04-22 11:43 55.19498 17.51689 30031 ft 398 kts 151°
2026-04-22 11:43 55.17002 17.53627 29570 ft 394 kts 151°
2026-04-22 11:43 55.14498 17.55543 29147 ft 391 kts 152°
2026-04-22 11:43 55.12009 17.57434 28724 ft 388 kts 152°
2026-04-22 11:44 55.09540 17.59311 28299 ft 385 kts 152°
2026-04-22 11:44 55.07120 17.61154 27880 ft 383 kts 152°
2026-04-22 11:44 55.04687 17.63011 27477 ft 380 kts 152°
2026-04-22 11:44 55.02274 17.64854 27082 ft 377 kts 152°
2026-04-22 11:45 54.99878 17.66688 26686 ft 374 kts 150°
2026-04-22 11:45 54.97649 17.68917 26300 ft 366 kts 140°
2026-04-22 11:45 54.95710 17.71709 25919 ft 358 kts 131°
2026-04-22 11:45 54.94002 17.74832 25537 ft 354 kts 129°
2026-04-22 11:46 54.92314 17.77917 25177 ft 351 kts 130°
2026-04-22 11:46 54.90631 17.80965 24813 ft 347 kts 130°
2026-04-22 11:46 54.88956 17.83984 24430 ft 345 kts 130°
2026-04-22 11:46 54.87318 17.86932 24065 ft 342 kts 130°
2026-04-22 11:47 54.85671 17.89901 23667 ft 340 kts 130°
2026-04-22 11:47 54.84037 17.92851 23252 ft 337 kts 130°
2026-04-22 11:47 54.82417 17.95774 22877 ft 335 kts 130°
2026-04-22 11:47 54.80790 17.98711 22764 ft 341 kts 131°
2026-04-22 11:48 54.78985 18.01426 22470 ft 348 kts 139°
2026-04-22 11:48 54.77702 18.03127 22065 ft 350 kts 139°
2026-04-22 11:48 54.75124 18.06488 21407 ft 349 kts 140°
2026-04-22 11:48 54.73182 18.09002 20957 ft 347 kts 140°
2026-04-22 11:49 54.71245 18.11505 20483 ft 347 kts 140°
2026-04-22 11:49 54.69966 18.13159 20146 ft 348 kts 140°
2026-04-22 11:49 54.68193 18.15457 19791 ft 345 kts 139°
2026-04-22 11:49 54.66450 18.18291 19287 ft 341 kts 128°
2026-04-22 11:50 54.64883 18.21344 18926 ft 338 kts 128°
2026-04-22 11:50 54.63330 18.24333 18469 ft 338 kts 129°
2026-04-22 11:50 54.61763 18.27327 17739 ft 333 kts 128°
2026-04-22 11:50 54.60226 18.30250 17242 ft 327 kts 128°
2026-04-22 11:51 54.58694 18.33166 16783 ft 327 kts 128°
2026-04-22 11:51 54.57180 18.36045 16333 ft 326 kts 128°
2026-04-22 11:51 54.55655 18.38939 15870 ft 324 kts 128°
2026-04-22 11:51 54.54139 18.41816 15417 ft 323 kts 128°
2026-04-22 11:52 54.52632 18.44674 14970 ft 321 kts 128°
2026-04-22 11:52 54.51130 18.47522 14519 ft 319 kts 128°
2026-04-22 11:52 54.49656 18.50316 14075 ft 318 kts 128°
2026-04-22 11:52 54.48175 18.53120 13629 ft 316 kts 128°
2026-04-22 11:53 54.46691 18.55921 13146 ft 314 kts 128°
2026-04-22 11:53 54.45233 18.58667 12720 ft 303 kts 128°
2026-04-22 11:53 54.43866 18.61233 12357 ft 288 kts 128°
2026-04-22 11:53 54.42612 18.63843 11936 ft 277 kts 116°
2026-04-22 11:54 54.41779 18.66786 11615 ft 274 kts 107°
2026-04-22 11:54 54.41041 18.69805 11356 ft 274 kts 108°
2026-04-22 11:54 54.40293 18.72815 11101 ft 272 kts 108°
2026-04-22 11:54 54.39559 18.75745 10844 ft 268 kts 108°
2026-04-22 11:55 54.38825 18.78663 10593 ft 265 kts 108°
2026-04-22 11:55 54.38098 18.81555 10370 ft 263 kts 108°
2026-04-22 11:55 54.37372 18.84440 10121 ft 262 kts 108°
2026-04-22 11:55 54.36649 18.87315 9884 ft 262 kts 108°
2026-04-22 11:56 54.35935 18.90153 9568 ft 261 kts 108°
2026-04-22 11:56 54.35214 18.93021 9211 ft 262 kts 109°
2026-04-22 11:56 54.34486 18.95918 8825 ft 264 kts 109°
2026-04-22 11:56 54.33717 18.98781 8464 ft 267 kts 118°
2026-04-22 11:57 54.32327 19.00913 8071 ft 274 kts 156°
2026-04-22 11:57 54.30475 19.01352 7653 ft 276 kts 193°
2026-04-22 11:57 54.28659 19.00318 7234 ft 276 kts 205°
2026-04-22 11:57 54.26991 18.98712 6786 ft 272 kts 231°
2026-04-22 11:58 54.26083 18.96017 6317 ft 254 kts 265°
2026-04-22 11:58 54.26133 18.93222 6067 ft 221 kts 292°
2026-04-22 11:58 54.26688 18.90863 5750 ft 211 kts 297°
2026-04-22 11:58 54.27268 18.88607 5466 ft 208 kts 297°
2026-04-22 11:59 54.27840 18.86352 5202 ft 204 kts 296°
2026-04-22 11:59 54.28387 18.84179 4922 ft 193 kts 296°
2026-04-22 11:59 54.28901 18.82133 4639 ft 182 kts 296°
2026-04-22 11:59 54.29388 18.80196 4403 ft 174 kts 296°
2026-04-22 12:00 54.29857 18.78327 4165 ft 167 kts 296°
2026-04-22 12:00 54.30309 18.76525 3929 ft 161 kts 296°
2026-04-22 12:00 54.30740 18.74805 3742 ft 155 kts 295°
2026-04-22 12:00 54.31161 18.73125 3527 ft 150 kts 295°
2026-04-22 12:01 54.31561 18.71530 3332 ft 146 kts 296°
2026-04-22 12:01 54.31959 18.69937 3140 ft 145 kts 295°
2026-04-22 12:01 54.32359 18.68337 2937 ft 145 kts 295°
2026-04-22 12:01 54.32758 18.66742 2754 ft 145 kts 295°
2026-04-22 12:02 54.33137 18.65219 2566 ft 137 kts 295°
2026-04-22 12:02 54.33509 18.63728 2385 ft 136 kts 295°
2026-04-22 12:02 54.33873 18.62266 2211 ft 132 kts 295°
2026-04-22 12:02 54.34231 18.60828 2021 ft 130 kts 295°
2026-04-22 12:03 54.34588 18.59398 1846 ft 131 kts 294°
2026-04-22 12:03 54.34947 18.57955 1669 ft 131 kts 294°
2026-04-22 12:03 54.35303 18.56522 1474 ft 131 kts 294°
2026-04-22 12:03 54.35658 18.55090 1288 ft 130 kts 295°
2026-04-22 12:04 54.36013 18.53661 1113 ft 130 kts 295°
2026-04-22 12:04 54.36366 18.52240 934 ft 129 kts 294°
2026-04-22 12:04 54.36718 18.50813 740 ft 131 kts 294°
2026-04-22 12:04 54.37062 18.49407 571 ft 129 kts 296°
2026-04-22 12:05 54.37403 18.48064 472 ft 111 kts 294°
2026-04-22 12:05 54.37641 18.47072 459 ft 64 kts 291°
2026-04-22 12:05 54.37750 18.46644 455 ft 19 kts 296°
2026-04-22 12:05 54.37802 18.46439 458 ft 18 kts 291°
2026-04-22 12:06 54.37853 18.46240 457 ft 19 kts 296°
2026-04-22 12:06 54.37917 18.46035 458 ft 20 kts 299°
2026-04-22 12:06 54.37994 18.45824 455 ft 20 kts 309°
2026-04-22 12:06 54.38085 18.45719 455 ft 13 kts 344°
2026-04-22 12:07 54.38135 18.45813 455 ft 13 kts 103°
2026-04-22 12:07 54.38106 18.45941 458 ft 11 kts 112°
2026-04-22 12:07 54.38117 18.46056 459 ft 11 kts 48°
2026-04-22 12:07 54.38173 18.46145 460 ft 12 kts 81°
2026-04-22 12:08 54.38151 18.46274 457 ft 6 kts 112°
2026-04-22 12:08 54.38137 18.46330 460 ft 5 kts 114°
2026-04-22 12:08 54.38125 18.46378 460 ft 1 kts 114°
2026-04-22 12:08 54.38118 18.46396 458 ft 4 kts 127°
2026-04-22 12:09 54.38093 18.46408 460 ft 2 kts 199°
2026-04-22 12:09 54.38080 18.46393 460 ft 2 kts 208°
2026-04-22 12:09 54.38064 18.46381 460 ft 2 kts 203°
2026-04-22 12:09 54.38061 18.46379 460 ft 0 kts 203°